Regional Weather Roundup
Issued by NWS

Home | Current Version | Previous Version | Graphics & Text | Print | Product List | Glossary On
Versions: 1 2 3 4 5 6 7 8 9 10 11 12 13 14 15 16 17 18 19 20 21 22 23 24 25 26 27 28 29 30 31 32 33 34 35 36 37 38 39 40 41 42 43 44 45 46 47 48 49 50
000
ASUS43 KIND 221509
RWRIN

WEATHER ROUNDUP FOR INDIANA
NATIONAL WEATHER SERVICE INDIANAPOLIS IN
1100 AM EDT MON MAY 22 2017

NOTE: "FAIR" INDICATES FEW OR NO CLOUDS BELOW 12,000 FEET WITH NO
SIGNIFICANT WEATHER AND/OR OBSTRUCTIONS TO VISIBILITY.

* - STATION DOES NOT REPORT WEATHER SUCH AS PRECIPITATION OR FOG.

+ - STATION NOT QUALITY CONTROLLED BY THE NATIONAL WEATHER SERVICE.
    USE DATA WITH CAUTION...ESPECIALLY DEWPOINT AND RELATIVE
    HUMIDITY OBSERVATIONS.

INZ001>003-010>013-019-020-221600-
NORTHWEST INDIANA

CITY           SKY/WX    TMP DP  RH WIND       PRES   REMARKS
GARY /AIRPORT/ MOSUNNY   61  41  48 SW10      30.06R
KNOX *+        SUNNY     59  34  38 W15G21    30.07R
LA PORTE +     SUNNY     59  45  58 SW10      30.07R
MICHIGAN CITY+ SUNNY     61  43  51 SW6       30.06S
MONTICELLO +   SUNNY     60  45  59 SW12      30.10S
RENSSELAER +   SUNNY     61  41  48 SW13      30.09S
VALPARAISO     SUNNY     61  44  53 W12       30.06S

$$

LMZ046-743>745-221600-
SOUTHERN LAKE MICHIGAN

STATION/POSITION TIME  TEMP    WIND        PRES    WAVE
                       AIR SEA DIR/SP/G            HT
                 (UTC) (F)     (DEG/KT/KT) (MB)    (FT)
BURNS HARBOR     1504   57     260/  7/ 14 1017.9
MICHIGAN CITY    1440   54     230/ 14/ 15   N/A
5NW MICH CITY    1500   53 52  240/  8/ 10   N/A     2

$$

INZ004-005-014>016-021>024-221600-
NORTH CENTRAL INDIANA

CITY           SKY/WX    TMP DP  RH WIND       PRES   REMARKS
GOSHEN         SUNNY     58  44  60 SW17      30.05S
LOGANSPORT +   SUNNY     59  45  58 SW8       30.11S
PERU/GRISSOM   MOSUNNY   59  44  57 W8        30.09S
ROCHESTER +    SUNNY     63  45  51 SW8G18    30.09R
SOUTH BEND     SUNNY     58  43  57 W13       30.06R
WARSAW +       SUNNY     59  43  55 W12       30.07R

$$

INZ006>009-017-018-025>027-221600-
NORTHEAST INDIANA

CITY           SKY/WX    TMP DP  RH WIND       PRES   REMARKS
ANGOLA *+      SUNNY     57  48  72 W13       30.04R
AUBURN +       MOSUNNY   59  43  55 W9G18     30.08R
FORT WAYNE     CLOUDY    59  45  59 W15       30.09R
HUNTINGTON +   CLOUDY    58  44  58 W8        30.09S
KENDALLVILLE + MOSUNNY   58  43  56 SW14      30.06R

$$

INZ028-029-035-036-043>045-051>053-221600-
WEST CENTRAL INDIANA

CITY           SKY/WX    TMP DP  RH WIND       PRES   REMARKS
CRAWFORDSVL +  CLOUDY    57  46  65 SW5       30.12F
GREENCASTLE +  CLOUDY    59  45  58 CALM      30.14F
LAFAYETTE      SUNNY     60  45  57 W7        30.10F
TERRE HAUTE    PTSUNNY   61  47  59 S6        30.13F

$$

INZ030>032-037>040-046>048-054>057-064-065-221600-
CENTRAL INDIANA

CITY           SKY/WX    TMP DP  RH WIND       PRES   REMARKS
CP ATTERBURY + SUNNY     63  45  51 W3        30.15F
COLUMBUS       MOSUNNY   59  41  51 NW5       30.16F
FISHERS *+     CLOUDY    59  48  67 W5        30.13F
FRANKFORT +    MOSUNNY   62  46  56 SW5       30.13F
GREENWOOD *+   SUNNY     60  44  55 CALM      30.15F
INDIANAPOLIS   PTSUNNY   59  45  59 W8        30.13F
-EAGLE CREEK   CLOUDY    59  44  57 W7        30.13F
KOKOMO +       CLOUDY    60  46  59 W8        30.12R
MARION +       CLOUDY    57  43  58 W9        30.12F
MT COMFORT *+  MOSUNNY   61  45  55 W8        30.14F
SHELBYVILLE    SUNNY     62  43  49 W9        30.14F
ZIONSVILLE +   CLOUDY    57  45  63 W6        30.13F

$$

INZ033-034-041-042-049-050-058-059-221600-
EAST CENTRAL INDIANA

CITY           SKY/WX    TMP DP  RH WIND       PRES   REMARKS
MUNCIE         CLOUDY    59  43  55 W9        30.12F
RICHMOND +     SUNNY     55  41  58 W12G17    30.15F HAZE

$$

INZ060-061-067>069-081>083-085>088-221600-
SOUTHWEST INDIANA

CITY           SKY/WX    TMP DP  RH WIND       PRES   REMARKS
EVANSVILLE     CLOUDY    68  45  43 VRB6      30.15F
HUNTINGBURG *+ CLOUDY    62  48  60 N5        30.15F
WASHINGTON +   MOSUNNY   63  42  47 CALM      30.15S

$$

INZ062-063-066-070>080-084-089>092-221600-
SOUTH CENTRAL AND SOUTHEAST INDIANA

CITY           SKY/WX    TMP DP  RH WIND       PRES   REMARKS
BEDFORD +      PTSUNNY   61  43  51 NW3       30.14F
BLOOMINGTON    SUNNY     63  44  50 CALM      30.14F
MADISON *+     PTSUNNY   63  41  45 NW7       30.18F
NORTH VERNON + PTSUNNY   57  43  58 NW6       30.16F
SEYMOUR +      CLOUDY    63  43  48 NW7       30.15F

$$





USA.gov is the U.S. government's official web portal to all federal, state and local government web resources and services.